FW7783 Weather Reports


time (UTC)temp
C
wind
direction
speed
KPH
gust
KPH
rain 1hr
cm
rain 24hr
cm
rain mn
cm
humidity
%
barometer
mb
20260505070535 17 209 4.8 12.9 0.00 0.00 0.00 68 1003.4
20260505070044 17 185 3.2 12.9 0.00 0.00 0.00 68 1003.2
20260505065536 17 196 3.2 11.3 0.00 0.00 0.00 68 1003.1
20260505065034 17 218 3.2 11.3 0.00 0.00 0.00 68 1003.2
20260505064552 17 195 3.2 11.3 0.00 0.00 0.00 67 1003.1
20260505064037 17 0 4.8 9.7 0.00 0.00 0.00 67 1003.2
20260505063535 17 192 3.2 9.7 0.00 0.00 0.00 67 1003.0
20260505063047 17 200 3.2 9.7 0.00 0.00 0.00 67 1003.3
20260505062535 17 203 3.2 9.7 0.00 0.00 0.00 66 1003.2
20260505062036 17 211 3.2 12.9 0.00 0.00 0.00 66 1003.2
20260505061548 17 0 1.6 12.9 0.00 0.00 0.00 66 1003.1
20260505061036 17 207 3.2 9.7 0.00 0.00 0.00 66 1003.1
20260505060539 17 200 1.6 8.0 0.00 0.00 0.00 65 1003.1
20260505060050 17 196 3.2 8.0 0.00 0.00 0.00 65 1003.1
20260505055535 17 198 1.6 8.0 0.00 0.00 0.00 64 1003.0
20260505055035 17 197 1.6 8.0 0.00 0.00 0.00 64 1003.1
20260505054616 17 212 1.6 9.7 0.00 0.00 0.00 63 1003.1
20260505054037 17 202 3.2 9.7 0.00 0.00 0.00 63 1003.1
20260505053535 17 226 3.2 9.7 0.00 0.00 0.00 62 1003.1
20260505053047 17 225 3.2 9.7 0.00 0.00 0.00 60 1003.1
20260505052538 17 211 3.2 9.7 0.00 0.00 0.00 59 1003.2
20260505052037 17 0 1.6 4.8 0.00 0.00 0.00 59 1003.1
20260505051549 17 200 1.6 6.4 0.00 0.00 0.00 58 1003.1
20260505051036 17 0 1.6 6.4 0.00 0.00 0.00 58 1003.1
20260505050537 17 224 0.0 4.8 0.00 0.00 0.00 57 1003.1
20260505041550 18 205 3.2 16.1 0.00 0.00 0.00 54 1003.5
20260505041035 18 214 4.8 16.1 0.00 0.00 0.00 53 1003.5
20260505040535 17 225 3.2 14.5 0.00 0.00 0.00 54 1003.3
20260505040052 17 205 6.4 14.5 0.00 0.00 0.00 55 1003.4
20260505035535 16 217 1.6 4.8 0.00 0.00 0.00 58 1003.3
20260505035037 16 227 1.6 6.4 0.00 0.00 0.00 60 1003.2
20260505034545 15 232 1.6 6.4 0.00 0.00 0.00 61 1003.2
20260505034035 15 205 0.0 4.8 0.00 0.00 0.00 63 1003.2
20260505033535 14 197 1.6 4.8 0.00 0.00 0.00 65 1003.2
20260505033047 13 197 0.0 4.8 0.00 0.00 0.00 69 1003.3
20260505032535 13 196 0.0 3.2 0.00 0.00 0.00 72 1003.2
20260505032036 12 0 0.0 0.0 0.00 0.00 0.00 75 1003.3
20260505031545 12 0 0.0 0.0 0.00 0.00 0.00 78 1003.3
20260505031035 12 0 0.0 0.0 0.00 0.00 0.00 79 1003.3
20260505030536 12 0 0.0 1.6 0.00 0.00 0.00 78 1003.3
20260505030056 12 0 0.0 1.6 0.00 0.00 0.00 76 1003.3
20260505025535 12 0 0.0 3.2 0.00 0.00 0.00 78 1003.2
20260505025036 12 0 0.0 3.2 0.00 0.00 0.00 76 1003.3
20260505024551 12 0 0.0 3.2 0.00 0.00 0.00 76 1003.3
20260505024035 12 200 0.0 3.2 0.00 0.00 0.00 75 1003.4
20260505023535 12 200 0.0 3.2 0.00 0.00 0.00 75 1003.4
20260505023041 12 0 0.0 3.2 0.00 0.00 0.00 75 1003.4
20260505022535 12 0 0.0 3.2 0.00 0.00 0.00 74 1003.4
20260505022035 12 0 0.0 1.6 0.00 0.00 0.00 74 1003.5
20260505021549 12 0 0.0 1.6 0.00 0.00 0.00 73 1003.6
20260505021034 12 0 0.0 0.0 0.00 0.00 0.00 76 1003.7
20260505020535 12 0 0.0 0.0 0.00 0.00 0.00 75 1003.7
20260505020053 13 0 0.0 0.0 0.00 0.00 0.00 73 1003.6
20260505015535 13 0 0.0 1.6 0.00 0.00 0.00 75 1003.6
20260505015036 13 0 0.0 1.6 0.00 0.00 0.00 76 1003.6
20260505014545 13 0 0.0 1.6 0.00 0.00 0.00 76 1003.5
20260505014035 13 0 0.0 0.0 0.00 0.00 0.00 74 1003.5
20260505013538 14 0 0.0 0.0 0.00 0.00 0.00 73 1003.5
20260505013043 14 0 0.0 0.0 0.00 0.00 0.00 73 1003.4
20260505012535 14 0 0.0 0.0 0.00 0.00 0.00 73 1003.4
20260505012035 15 0 0.0 0.0 0.00 0.00 0.00 72 1003.4
20260505011540 15 0 0.0 0.0 0.00 0.00 0.00 72 1003.4
20260505011034 15 0 0.0 0.0 0.00 0.00 0.00 69 1003.4
20260505010537 15 0 0.0 0.0 0.00 0.00 0.00 68 1003.4
20260505005535 16 0 0.0 3.2 0.00 0.00 0.00 66 1003.4
20260505005038 16 0 0.0 3.2 0.00 0.00 0.00 67 1003.3
20260505004538 16 200 1.6 3.2 0.00 0.00 0.00 63 1003.2
20260505004036 16 0 0.0 1.6 0.00 0.00 0.00 62 1003.3
20260505003535 17 0 0.0 0.0 0.00 0.00 0.00 65 1003.3
20260505003050 17 0 0.0 0.0 0.00 0.00 0.00 61 1003.3
20260505002534 17 0 0.0 0.0 0.00 0.00 0.00 63 1003.3
20260505002035 17 0 0.0 0.0 0.00 0.00 0.00 60 1003.2
20260505001546 18 0 0.0 0.0 0.00 0.00 0.00 58 1003.3
20260505001035 18 0 0.0 0.0 0.00 0.00 0.00 59 1003.3
20260505000535 18 0 0.0 0.0 0.00 0.00 0.00 57 1003.3
20260505000052 19 0 0.0 0.0 0.00 0.00 0.00 57 1003.2
20260504235538 19 0 0.0 1.6 0.00 0.00 0.00 55 1003.3
20260504235035 20 0 0.0 1.6 0.00 0.00 0.00 51 1003.2
20260504234552 20 0 0.0 1.6 0.00 0.00 0.00 49 1003.2
20260504234034 20 0 0.0 3.2 0.00 0.00 0.00 51 1003.3
20260504233535 21 0 0.0 3.2 0.00 0.00 0.00 44 1003.1
20260504233053 21 0 0.0 3.2 0.00 0.00 0.00 38 1003.2
20260504232535 21 219 0.0 3.2 0.00 0.00 0.00 40 1003.1
20260504232035 22 0 0.0 4.8 0.00 0.00 0.00 37 1003.1
20260504231547 22 0 0.0 4.8 0.00 0.00 0.00 37 1003.1
20260504231034 22 219 1.6 6.4 0.00 0.00 0.00 34 1003.1
20260504230534 22 223 1.6 6.4 0.00 0.00 0.00 33 1003.1
20260504230107 22 221 1.6 11.3 0.00 0.00 0.00 34 1003.1
20260504225540 22 213 1.6 11.3 0.00 0.00 0.00 32 1003.0
20260504225036 22 210 4.8 11.3 0.00 0.00 0.00 32 1003.0
20260504224558 23 228 3.2 8.0 0.00 0.00 0.00 31 1003.0
20260504224036 23 196 3.2 9.7 0.00 0.00 0.00 32 1003.0
20260504223536 23 269 3.2 12.9 0.00 0.00 0.00 33 1003.0
20260504223051 23 256 3.2 12.9 0.00 0.00 0.00 31 1003.1
20260504222535 23 205 3.2 9.7 0.00 0.00 0.00 31 1003.1
20260504222034 23 210 3.2 9.7 0.00 0.00 0.00 32 1003.1
20260504221550 23 0 1.6 12.9 0.00 0.00 0.00 33 1003.1
20260504221035 23 257 4.8 14.5 0.00 0.00 0.00 32 1003.2
20260504220535 23 202 6.4 17.7 0.00 0.00 0.00 32 1003.3
20260504220057 23 248 6.4 19.3 0.00 0.00 0.00 31 1003.2
20260504215535 23 216 8.0 19.3 0.00 0.00 0.00 33 1003.2
20260504215035 23 267 4.8 19.3 0.00 0.00 0.00 33 1003.2
20260504214546 23 259 6.4 19.3 0.00 0.00 0.00 32 1003.3
20260504214035 23 227 4.8 12.9 0.00 0.00 0.00 33 1003.2
20260504213535 23 171 4.8 17.7 0.00 0.00 0.00 34 1003.5
20260504213047 23 227 8.0 17.7 0.00 0.00 0.00 32 1003.4
20260504212535 23 243 6.4 12.9 0.00 0.00 0.00 32 1003.6
20260504212035 23 284 4.8 11.3 0.00 0.00 0.00 34 1003.6
20260504211557 23 192 4.8 12.9 0.00 0.00 0.00 33 1003.6
20260504211035 23 201 3.2 19.3 0.00 0.00 0.00 34 1003.5
20260504210535 23 222 8.0 19.3 0.00 0.00 0.00 33 1003.6
20260504210056 23 242 4.8 17.7 0.00 0.00 0.00 34 1003.6
20260504205534 23 227 3.2 19.3 0.00 0.00 0.00 33 1003.6
20260504205034 23 319 8.0 19.3 0.00 0.00 0.00 32 1003.6
20260504204550 23 240 8.0 20.9 0.00 0.00 0.00 32 1003.6
20260504204034 23 231 8.0 20.9 0.00 0.00 0.00 34 1003.7
20260504203534 23 209 8.0 17.7 0.00 0.00 0.00 33 1003.7
20260504203044 23 190 8.0 17.7 0.00 0.00 0.00 35 1003.8
20260504202534 23 207 6.4 17.7 0.00 0.00 0.00 34 1003.8
20260504202034 23 245 4.8 19.3 0.00 0.00 0.00 34 1003.8
20260504201549 23 300 9.7 19.3 0.00 0.00 0.00 34 1003.9
20260504201033 23 230 9.7 17.7 0.00 0.00 0.00 33 1003.9
20260504200535 23 202 4.8 16.1 0.00 0.00 0.00 36 1004.0
20260504200057 22 203 8.0 16.1 0.00 0.00 0.00 36 1004.0
20260504195534 22 229 6.4 14.5 0.00 0.00 0.00 40 1004.3
20260504195034 22 220 6.4 19.3 0.00 0.00 0.00 39 1004.2
20260504194545 22 184 6.4 22.5 0.00 0.00 0.00 39 1004.4
20260504194034 22 186 6.4 22.5 0.00 0.00 0.00 40 1004.5
20260504193534 22 242 6.4 20.9 0.00 0.00 0.00 42 1004.5
20260504193045 22 217 9.7 20.9 0.00 0.00 0.00 38 1004.6
20260504192535 22 188 8.0 20.9 0.00 0.00 0.00 39 1004.6
20260504192034 22 169 6.4 16.1 0.00 0.00 0.00 39 1004.7
20260504191547 23 232 4.8 17.7 0.00 0.00 0.00 41 1004.6
20260504191034 22 182 4.8 17.7 0.00 0.00 0.00 42 1004.7
20260504190534 22 206 6.4 17.7 0.00 0.00 0.00 40 1004.8
20260504190042 22 286 6.4 16.1 0.00 0.00 0.00 42 1005.0
20260504185533 22 190 6.4 16.1 0.00 0.00 0.00 42 1005.1
20260504185033 22 229 8.0 17.7 0.00 0.00 0.00 41 1005.1
20260504184549 22 223 8.0 17.7 0.00 0.00 0.00 42 1005.1
20260504184037 22 231 8.0 20.9 0.00 0.00 0.00 43 1005.2
20260504183535 22 261 8.0 20.9 0.00 0.00 0.00 42 1005.3
20260504183038 22 178 6.4 20.9 0.00 0.00 0.00 41 1005.3
20260504182534 21 227 8.0 33.8 0.00 0.00 0.00 42 1005.3
20260504182034 21 257 12.9 33.8 0.00 0.00 0.00 44 1005.3
20260504181546 21 196 11.3 24.1 0.00 0.00 0.00 43 1005.4
20260504181035 21 207 9.7 22.5 0.00 0.00 0.00 42 1005.4
20260504180535 21 233 9.7 19.3 0.00 0.00 0.00 42 1005.3
20260504180044 21 248 4.8 19.3 0.00 0.00 0.00 45 1005.4
20260504175534 21 249 6.4 19.3 0.00 0.00 0.00 46 1005.4
20260504175034 21 198 8.0 19.3 0.00 0.00 0.00 45 1005.5
20260504174540 21 242 6.4 19.3 0.00 0.00 0.00 44 1005.5
20260504174035 21 241 6.4 19.3 0.00 0.00 0.00 45 1005.5
20260504173534 20 251 8.0 19.3 0.00 0.00 0.00 44 1005.6
20260504173039 21 214 8.0 20.9 0.00 0.00 0.00 44 1005.5
20260504172534 21 198 8.0 20.9 0.00 0.00 0.00 45 1005.7
20260504172034 20 275 8.0 19.3 0.00 0.00 0.00 46 1005.5
20260504171549 20 198 8.0 17.7 0.00 0.00 0.00 46 1005.7
20260504171035 20 284 8.0 17.7 0.00 0.00 0.00 46 1005.8
20260504170535 20 282 6.4 17.7 0.00 0.00 0.00 46 1005.8
20260504151035 17 198 3.2 14.5 0.00 0.00 0.00 50 1006.6
20260504150534 17 270 3.2 14.5 0.00 0.00 0.00 51 1006.6
20260504141034 16 202 6.4 14.5 0.00 0.00 0.00 52 1006.8
20260504140534 16 238 4.8 19.3 0.00 0.00 0.00 50 1006.8
20260504130536 13 232 3.2 12.9 0.00 0.00 0.00 54 1007.6
20260504120105 11 0 0.0 3.2 0.00 0.00 0.00 63 1007.8
20260504110534 11 0 1.6 9.7 0.00 0.00 0.00 57 1007.6
20260504100533 11 203 4.8 12.9 0.00 0.00 0.00 55 1007.4
20260504081554 11 194 3.2 12.9 0.00 0.00 0.00 57 1008.0
20260504081035 11 198 1.6 12.9 0.00 0.00 0.00 57 1008.0
20260504080534 11 216 3.2 8.0 0.00 0.00 0.00 57 1008.0